Home > Time Zones > World Clock > Weather > Spain > Palma > Past weeks

Flag Weather past 2 weeks in Palma, Majorca, Spain

Now
61 °F

Light rain. Passing clouds.


Feels Like: 61 °F
Forecast: 52 / 67 °F
Wind: 3 mph from Northeast

Location: Palma De Mallorca / Son San Juan

Current Time: Nov 26, 2014 at 5:36:54 AM

Latest Report: Nov 26, 2014 at 4:30 AM


Visibility: 6 mi

Pressure: 29.92 "Hg

Humidity: 94%

Dew point: 59 °F

Location of PalmaLocation

Historic Weather in Palma — Graph

°F

Palma temperature yesterday

Maximum temperature yesterday: 72 °F (at 1:30 PM)
Minimum temperature yesterday: 57 °F (at 9:30 PM)
Average temperature yesterday: 63 °F

Past Weeks' High & Low Weather Summary

 TemperatureHumidityPressure
High81 °F (Nov 23, 1:30 PM)100% (Nov 11, 4:00 AM)30.15 "Hg (Nov 11, 4:00 AM)
Low43 °F (Nov 19, 6:30 AM)39% (Nov 23, 3:30 PM)29.62 "Hg (Nov 11, 8:02 PM)
Average61 °F81%29.93 "Hg
* Reported Nov 11 4:00 AM — Nov 26 4:00 AM, Palma, Weather by CustomWeather, © 2014

Note: Actual official high and low records may vary slightly from our data, if they occured in-between our weather recording intervals... More about our weather records

Advertising

Palma weather history for previous 24 hours

 ConditionsComfort  
Time TempWeatherWind HumidityBarometerVisibility
4:00 AM
Nov 26
61 °FRain. Passing clouds.2 mph100%29.92 "Hg6 mi
3:30 AM61 °FRain. Passing clouds.2 mph94%29.95 "HgN/A
3:00 AM59 °FLight rain. Passing clouds.1 mph100%29.95 "HgN/A
2:30 AM59 °FThunderstorms. Partly cloudy.No wind100%29.95 "Hg2 mi
2:00 AM57 °FPartly cloudy.1 mph100%29.95 "HgN/A
1:30 AM57 °FPassing clouds.1 mph94%29.98 "HgN/A
1:00 AM57 °FPassing clouds.1 mph100%29.98 "HgN/A
12:30 AM57 °FPartly cloudy.No wind100%29.98 "HgN/A
12:00 AM59 °FPassing clouds.No wind94%30.01 "HgN/A
11:30 PM
Nov 25
57 °FPassing clouds.2 mph100%30.01 "HgN/A
11:00 PM59 °FPassing clouds.1 mph94%30.01 "HgN/A
10:30 PM59 °FPassing clouds.No wind94%30.01 "HgN/A
10:00 PM59 °FPassing clouds.2 mph94%30.01 "HgN/A
9:30 PM57 °FPassing clouds.No wind94%30.01 "HgN/A
9:00 PM59 °FPassing clouds.1 mph88%30.01 "HgN/A
8:30 PM59 °FPassing clouds.5 mph94%30.01 "HgN/A
8:00 PM59 °FPassing clouds.No wind94%30.01 "HgN/A
7:30 PM59 °FPassing clouds.No wind88%30.01 "HgN/A
7:00 PM61 °FPassing clouds.No wind88%30.01 "HgN/A
6:30 PM64 °FPassing clouds.2 mph78%30.01 "HgN/A
6:00 PM64 °FPassing clouds.1 mph83%30.01 "HgN/A
5:30 PM68 °FPassing clouds.No wind69%30.01 "HgN/A
5:00 PM68 °FPassing clouds.1 mph73%30.01 "HgN/A
4:30 PM70 °FPassing clouds.2 mph69%30.01 "HgN/A
4:00 PM70 °FPassing clouds.7 mph69%30.01 "HgN/A
3:30 PM70 °FPassing clouds.3 mph69%30.01 "HgN/A
3:00 PM70 °FPassing clouds.8 mph69%30.01 "HgN/A
2:30 PM70 °FPassing clouds.7 mph64%30.04 "HgN/A
2:00 PM72 °FPassing clouds.7 mph61%30.04 "HgN/A
1:30 PM72 °FPassing clouds.5 mph61%30.04 "HgN/A
1:00 PM70 °FPassing clouds.2 mph69%30.04 "HgN/A
12:30 PM70 °FPassing clouds.6 mph69%30.07 "HgN/A
12:00 PM68 °FPassing clouds.5 mph78%30.07 "HgN/A
11:30 AM68 °FPassing clouds.No wind83%30.07 "HgN/A
11:00 AM66 °FPassing clouds.No wind88%30.07 "HgN/A
10:30 AM64 °FPassing clouds.No wind94%30.07 "HgN/A
10:00 AM63 °FPassing clouds.No wind100%30.07 "HgN/A
9:30 AM61 °FPassing clouds.No wind100%30.07 "HgN/A
9:00 AM61 °FPassing clouds.No wind94%30.07 "HgN/A
8:30 AM59 °FPassing clouds.1 mph100%30.04 "HgN/A
8:00 AM59 °FPassing clouds.No wind94%30.04 "HgN/A
7:30 AM59 °FPassing clouds.No wind94%30.04 "HgN/A
7:00 AM59 °FPassing clouds.No wind94%30.04 "HgN/A
6:30 AM59 °FPassing clouds.No wind94%30.04 "HgN/A
6:00 AM59 °FPassing clouds.No wind94%30.04 "HgN/A
5:30 AM59 °FPassing clouds.No wind100%30.04 "HgN/A
Weather by CustomWeather, © 2014

See weather overviewHow to use our weather pages